Time,TemperatureF,DewpointF,PressureIn,WindDirection,WindDirectionDegrees,WindSpeedMPH,WindSpeedGustMPH,Humidity,HourlyPrecipIn,Conditions,Clouds,dailyrainin,SolarRadiationWatts/m^2,SoftwareType,DateUTC
2013-09-13 00:00:00,65.2,52.4,-100.00,North,6,2.9,4.5,63,0.00,,,-99.99,1.0,HOBO +U30 +Weather +,2013-09-13 06:00:00,
2013-09-13 00:05:00,65.4,52.8,-100.00,NNW,329,1.8,3.4,63,0.00,,,-99.99,1.0,HOBO +U30 +Weather +,2013-09-13 06:05:00,
2013-09-13 00:10:00,65.7,52.8,-100.00,NNW,340,1.1,3.4,62,0.00,,,-99.99,1.0,HOBO +U30 +Weather +,2013-09-13 06:10:00,
2013-09-13 00:15:00,65.2,52.3,-100.00,NE,39,4.0,5.6,63,0.00,,,-99.99,1.0,HOBO +U30 +Weather +,2013-09-13 06:15:00,
2013-09-13 00:20:00,65.1,52.6,-100.00,NE,37,5.1,6.3,63,0.00,,,-99.99,1.0,HOBO +U30 +Weather +,2013-09-13 06:20:00,
2013-09-13 00:25:00,65.3,52.5,-100.00,NE,35,4.5,6.3,63,0.00,,,-99.99,1.0,HOBO +U30 +Weather +,2013-09-13 06:25:00,
2013-09-13 00:30:00,65.0,52.8,-100.00,NE,44,5.1,7.4,64,0.00,,,-99.99,1.0,HOBO +U30 +Weather +,2013-09-13 06:30:00,
2013-09-13 00:35:00,64.2,53.1,-100.00,NE,45,5.6,7.8,67,0.00,,,-99.99,1.0,HOBO +U30 +Weather +,2013-09-13 06:35:00,
2013-09-13 00:40:00,64.3,52.9,-100.00,NE,44,2.2,4.5,66,0.00,,,-99.99,1.0,HOBO +U30 +Weather +,2013-09-13 06:40:00,
2013-09-13 00:54:00,64.5,52.8,-100.00,NE,44,1.8,2.9,65,0.00,,,-99.99,1.0,HOBO +U30 +Weather +,2013-09-13 06:54:00,
2013-09-13 00:55:00,64.8,52.6,-100.00,NE,44,2.2,4.0,64,0.00,,,-99.99,1.0,HOBO +U30 +Weather +,2013-09-13 06:55:00,
2013-09-13 01:00:00,65.0,52.6,-100.00,NE,44,1.1,2.9,64,0.00,,,-99.99,1.0,HOBO +U30 +Weather +,2013-09-13 07:00:00,
2013-09-13 01:05:00,64.8,52.5,-100.00,NNE,27,2.9,4.0,64,0.00,,,-99.99,1.0,HOBO +U30 +Weather +,2013-09-13 07:05:00,
2013-09-13 01:10:00,64.5,52.6,-100.00,NNE,18,1.1,2.2,65,0.00,,,-99.99,1.0,HOBO +U30 +Weather +,2013-09-13 07:10:00,
2013-09-13 01:15:00,64.3,52.8,-100.00,NNE,18,0.0,1.8,66,0.00,,,-99.99,1.0,HOBO +U30 +Weather +,2013-09-13 07:15:00,
2013-09-13 01:20:00,64.5,52.7,-100.00,NNE,32,2.2,4.0,65,0.00,,,-99.99,1.0,HOBO +U30 +Weather +,2013-09-13 07:20:00,
2013-09-13 01:25:00,64.2,52.4,-100.00,NE,53,0.7,3.4,65,0.00,,,-99.99,1.0,HOBO +U30 +Weather +,2013-09-13 07:25:00,
2013-09-13 01:30:00,64.3,52.4,-100.00,NE,53,0.0,1.8,65,0.00,,,-99.99,1.0,HOBO +U30 +Weather +,2013-09-13 07:30:00,
2013-09-13 01:35:00,64.5,52.6,-100.00,South,177,2.2,4.5,65,0.00,,,-99.99,1.0,HOBO +U30 +Weather +,2013-09-13 07:35:00,
2013-09-13 01:40:00,64.3,52.5,-100.00,SSW,198,0.0,0.7,65,0.00,,,-99.99,1.0,HOBO +U30 +Weather +,2013-09-13 07:40:00,
2013-09-13 01:45:00,64.2,52.8,-100.00,SSW,199,0.7,2.2,66,0.00,,,-99.99,1.0,HOBO +U30 +Weather +,2013-09-13 07:45:00,
2013-09-13 01:50:00,63.9,53.4,-100.00,SSW,194,0.7,1.8,68,0.00,,,-99.99,1.0,HOBO +U30 +Weather +,2013-09-13 07:50:00,
2013-09-13 01:55:00,63.9,53.4,-100.00,East,86,1.1,2.2,68,0.00,,,-99.99,1.0,HOBO +U30 +Weather +,2013-09-13 07:55:00,
2013-09-13 02:00:00,64.1,53.1,-100.00,East,86,0.0,1.1,67,0.00,,,-99.99,1.0,HOBO +U30 +Weather +,2013-09-13 08:00:00,
2013-09-13 02:05:00,63.4,53.2,-100.00,ENE,60,1.8,3.4,69,0.00,,,-99.99,1.0,HOBO +U30 +Weather +,2013-09-13 08:05:00,
2013-09-13 02:10:00,63.0,53.1,-100.00,NE,38,0.7,2.2,69,0.00,,,-99.99,1.0,HOBO +U30 +Weather +,2013-09-13 08:10:00,
2013-09-13 02:15:00,62.8,53.1,-100.00,NE,38,0.0,1.1,70,0.00,,,-99.99,1.0,HOBO +U30 +Weather +,2013-09-13 08:15:00,
2013-09-13 02:20:00,62.8,53.1,-100.00,NE,38,0.0,1.8,70,0.00,,,-99.99,1.0,HOBO +U30 +Weather +,2013-09-13 08:20:00,
2013-09-13 02:25:00,63.1,53.2,-100.00,NE,38,1.8,3.4,70,0.00,,,-99.99,1.0,HOBO +U30 +Weather +,2013-09-13 08:25:00,
2013-09-13 02:30:00,63.1,53.5,-100.00,NE,34,2.2,4.5,70,0.00,,,-99.99,1.0,HOBO +U30 +Weather +,2013-09-13 08:30:00,
2013-09-13 02:35:00,62.8,53.4,-100.00,NE,38,2.9,4.5,71,0.00,,,-99.99,1.0,HOBO +U30 +Weather +,2013-09-13 08:35:00,
2013-09-13 02:40:00,63.0,53.1,-100.00,NNE,20,1.1,4.0,70,0.00,,,-99.99,1.0,HOBO +U30 +Weather +,2013-09-13 08:40:00,
2013-09-13 02:51:00,63.0,52.9,-100.00,NNE,21,1.1,4.0,69,0.00,,,-99.99,1.0,HOBO +U30 +Weather +,2013-09-13 08:51:00,
2013-09-13 02:55:00,61.3,53.3,-100.00,NE,46,6.3,8.5,74,0.00,,,-99.99,1.0,HOBO +U30 +Weather +,2013-09-13 08:55:00,
2013-09-13 03:00:00,61.3,53.3,-100.00,NE,42,5.6,7.8,74,0.00,,,-99.99,1.0,HOBO +U30 +Weather +,2013-09-13 09:00:00,
2013-09-13 03:05:00,61.0,53.2,-100.00,NE,45,6.3,8.9,75,0.00,,,-99.99,1.0,HOBO +U30 +Weather +,2013-09-13 09:05:00,
2013-09-13 03:10:00,60.6,53.3,-100.00,NE,44,5.6,7.8,76,0.00,,,-99.99,1.0,HOBO +U30 +Weather +,2013-09-13 09:10:00,
2013-09-13 03:15:00,60.7,53.2,-100.00,NE,44,5.1,6.3,76,0.00,,,-99.99,1.0,HOBO +U30 +Weather +,2013-09-13 09:15:00,
2013-09-13 03:20:00,60.6,53.1,-100.00,NE,34,3.4,5.1,76,0.00,,,-99.99,1.0,HOBO +U30 +Weather +,2013-09-13 09:20:00,
2013-09-13 03:25:00,61.2,52.8,-100.00,NNE,15,1.8,4.0,74,0.00,,,-99.99,1.0,HOBO +U30 +Weather +,2013-09-13 09:25:00,
2013-09-13 03:30:00,60.9,52.9,-100.00,NE,35,2.9,4.5,74,0.00,,,-99.99,1.0,HOBO +U30 +Weather +,2013-09-13 09:30:00,
2013-09-13 03:35:00,60.7,52.8,-100.00,NE,39,4.0,6.3,75,0.00,,,-99.99,1.0,HOBO +U30 +Weather +,2013-09-13 09:35:00,
2013-09-13 03:40:00,60.9,52.8,-100.00,NNE,29,3.4,5.6,74,0.00,,,-99.99,1.0,HOBO +U30 +Weather +,2013-09-13 09:40:00,
2013-09-13 03:45:00,61.2,52.7,-100.00,NNE,27,4.0,5.6,73,0.00,,,-99.99,1.0,HOBO +U30 +Weather +,2013-09-13 09:45:00,
2013-09-13 03:50:00,61.4,52.4,-100.00,NNE,29,2.9,5.1,72,0.00,,,-99.99,1.0,HOBO +U30 +Weather +,2013-09-13 09:50:00,
2013-09-13 03:55:00,61.6,52.2,-100.00,NE,37,4.5,6.3,71,0.00,,,-99.99,1.0,HOBO +U30 +Weather +,2013-09-13 09:55:00,
2013-09-13 04:00:00,61.5,52.1,-100.00,NE,39,5.1,7.8,71,0.00,,,-99.99,1.0,HOBO +U30 +Weather +,2013-09-13 10:00:00,
2013-09-13 04:05:00,61.6,52.0,-100.00,NNE,29,5.1,7.8,70,0.00,,,-99.99,1.0,HOBO +U30 +Weather +,2013-09-13 10:05:00,
2013-09-13 04:10:00,61.4,52.0,-100.00,NNE,31,5.1,7.4,71,0.00,,,-99.99,1.0,HOBO +U30 +Weather +,2013-09-13 10:10:00,
2013-09-13 04:15:00,61.3,52.2,-100.00,NE,37,4.0,5.6,71,0.00,,,-99.99,1.0,HOBO +U30 +Weather +,2013-09-13 10:15:00,
2013-09-13 04:20:00,61.5,51.9,-100.00,NNE,25,4.5,6.7,70,0.00,,,-99.99,1.0,HOBO +U30 +Weather +,2013-09-13 10:20:00,
2013-09-13 04:25:00,61.8,52.0,-100.00,North,7,1.8,5.1,70,0.00,,,-99.99,1.0,HOBO +U30 +Weather +,2013-09-13 10:25:00,
2013-09-13 04:30:00,61.1,51.8,-100.00,North,7,0.7,2.9,71,0.00,,,-99.99,1.0,HOBO +U30 +Weather +,2013-09-13 10:30:00,
2013-09-13 04:35:00,61.9,51.8,-100.00,North,7,1.1,2.9,69,0.00,,,-99.99,1.0,HOBO +U30 +Weather +,2013-09-13 10:35:00,
2013-09-13 04:49:00,61.0,52.5,-100.00,North,7,0.7,2.2,73,0.00,,,-99.99,1.0,HOBO +U30 +Weather +,2013-09-13 10:49:00,
2013-09-13 04:50:00,61.2,52.1,-100.00,NE,44,1.8,4.0,71,0.00,,,-99.99,1.0,HOBO +U30 +Weather +,2013-09-13 10:50:00,
2013-09-13 04:55:00,60.9,52.2,-100.00,NE,46,4.5,7.4,73,0.00,,,-99.99,1.0,HOBO +U30 +Weather +,2013-09-13 10:55:00,
2013-09-13 05:00:00,60.3,52.4,-100.00,NE,51,4.5,7.4,74,0.00,,,-99.99,1.0,HOBO +U30 +Weather +,2013-09-13 11:00:00,
2013-09-13 05:05:00,60.7,52.3,-100.00,NE,46,4.0,6.3,73,0.00,,,-99.99,1.0,HOBO +U30 +Weather +,2013-09-13 11:05:00,
2013-09-13 05:10:00,61.0,52.2,-100.00,NE,42,5.1,7.4,72,0.00,,,-99.99,1.0,HOBO +U30 +Weather +,2013-09-13 11:10:00,
2013-09-13 05:15:00,61.1,52.2,-100.00,NE,34,5.1,6.7,72,0.00,,,-99.99,1.0,HOBO +U30 +Weather +,2013-09-13 11:15:00,
2013-09-13 05:20:00,61.2,52.1,-100.00,NNE,25,3.4,5.6,71,0.00,,,-99.99,1.0,HOBO +U30 +Weather +,2013-09-13 11:20:00,
2013-09-13 05:25:00,60.6,52.2,-100.00,NE,35,5.1,7.8,73,0.00,,,-99.99,1.0,HOBO +U30 +Weather +,2013-09-13 11:25:00,
2013-09-13 05:30:00,60.2,52.4,-100.00,NE,39,6.7,8.5,75,0.00,,,-99.99,1.0,HOBO +U30 +Weather +,2013-09-13 11:30:00,
2013-09-13 05:35:00,60.1,52.4,-100.00,NE,46,5.1,7.4,75,0.00,,,-99.99,1.0,HOBO +U30 +Weather +,2013-09-13 11:35:00,
2013-09-13 05:40:00,59.8,52.3,-100.00,NE,44,6.7,8.5,76,0.00,,,-99.99,1.0,HOBO +U30 +Weather +,2013-09-13 11:40:00,
2013-09-13 05:45:00,59.8,52.3,-100.00,NNE,29,6.3,8.5,76,0.00,,,-99.99,1.0,HOBO +U30 +Weather +,2013-09-13 11:45:00,
2013-09-13 05:50:00,60.0,52.3,-100.00,NNE,22,4.0,5.6,75,0.00,,,-99.99,1.0,HOBO +U30 +Weather +,2013-09-13 11:50:00,
2013-09-13 05:55:00,60.0,52.4,-100.00,NNE,25,4.0,5.6,75,0.00,,,-99.99,1.0,HOBO +U30 +Weather +,2013-09-13 11:55:00,
2013-09-13 06:00:00,60.0,52.3,-100.00,NE,42,5.1,7.4,75,0.00,,,-99.99,1.0,HOBO +U30 +Weather +,2013-09-13 12:00:00,
2013-09-13 06:05:00,60.0,52.2,-100.00,NE,48,6.3,8.5,75,0.00,,,-99.99,1.0,HOBO +U30 +Weather +,2013-09-13 12:05:00,
2013-09-13 06:10:00,60.0,52.2,-100.00,NE,39,6.7,8.5,75,0.00,,,-99.99,1.0,HOBO +U30 +Weather +,2013-09-13 12:10:00,
2013-09-13 06:15:00,60.3,52.0,-100.00,NE,38,6.7,8.9,74,0.00,,,-99.99,1.0,HOBO +U30 +Weather +,2013-09-13 12:15:00,
2013-09-13 06:20:00,60.3,52.1,-100.00,NNE,32,5.1,7.4,74,0.00,,,-99.99,1.0,HOBO +U30 +Weather +,2013-09-13 12:20:00,
2013-09-13 06:25:00,60.1,52.1,-100.00,NNE,32,2.9,5.6,74,0.00,,,-99.99,1.0,HOBO +U30 +Weather +,2013-09-13 12:25:00,
2013-09-13 06:30:00,60.1,52.1,-100.00,NNE,29,3.4,5.6,74,0.00,,,-99.99,1.0,HOBO +U30 +Weather +,2013-09-13 12:30:00,
2013-09-13 06:35:00,60.0,52.1,-100.00,NNE,22,2.9,5.6,75,0.00,,,-99.99,1.0,HOBO +U30 +Weather +,2013-09-13 12:35:00,
2013-09-13 06:46:00,60.3,52.0,-100.00,NNE,28,4.0,6.7,73,0.00,,,-99.99,3.0,HOBO +U30 +Weather +,2013-09-13 12:46:00,
2013-09-13 06:50:00,60.6,51.7,-100.00,NNE,24,4.0,5.6,72,0.00,,,-99.99,2.0,HOBO +U30 +Weather +,2013-09-13 12:50:00,
2013-09-13 06:55:00,60.8,51.7,-100.00,NNE,24,3.4,5.1,71,0.00,,,-99.99,3.0,HOBO +U30 +Weather +,2013-09-13 12:55:00,
2013-09-13 07:00:00,60.8,51.5,-100.00,NNE,21,3.4,5.6,71,0.00,,,-99.99,8.0,HOBO +U30 +Weather +,2013-09-13 13:00:00,
2013-09-13 07:05:00,61.1,51.4,-100.00,NNE,25,3.4,5.1,70,0.00,,,-99.99,14.0,HOBO +U30 +Weather +,2013-09-13 13:05:00,
2013-09-13 07:10:00,61.1,51.3,-100.00,NNE,25,5.1,6.7,69,0.00,,,-99.99,23.0,HOBO +U30 +Weather +,2013-09-13 13:10:00,
2013-09-13 07:15:00,61.0,51.3,-100.00,NNE,32,5.6,7.4,70,0.00,,,-99.99,33.0,HOBO +U30 +Weather +,2013-09-13 13:15:00,
2013-09-13 07:20:00,60.9,51.5,-100.00,NE,41,4.5,6.7,71,0.00,,,-99.99,53.0,HOBO +U30 +Weather +,2013-09-13 13:20:00,
2013-09-13 07:25:00,61.2,51.6,-100.00,NNE,20,2.9,5.1,70,0.00,,,-99.99,51.0,HOBO +U30 +Weather +,2013-09-13 13:25:00,
2013-09-13 07:30:00,60.7,51.7,-100.00,NE,37,4.0,6.3,72,0.00,,,-99.99,71.0,HOBO +U30 +Weather +,2013-09-13 13:30:00,
2013-09-13 07:44:00,60.8,51.9,-100.00,NE,44,4.5,6.7,72,0.00,,,-99.99,97.0,HOBO +U30 +Weather +,2013-09-13 13:44:00,
2013-09-13 07:45:00,60.8,51.7,-100.00,NNE,31,2.9,4.5,71,0.00,,,-99.99,53.0,HOBO +U30 +Weather +,2013-09-13 13:45:00,
2013-09-13 07:50:00,61.5,51.9,-100.00,NNE,29,4.0,6.3,70,0.00,,,-99.99,132.0,HOBO +U30 +Weather +,2013-09-13 13:50:00,
2013-09-13 07:55:00,62.2,52.0,-100.00,NNE,28,4.0,6.3,69,0.00,,,-99.99,173.0,HOBO +U30 +Weather +,2013-09-13 13:55:00,
2013-09-13 08:00:00,62.4,51.9,-100.00,NNE,31,4.0,6.3,68,0.00,,,-99.99,113.0,HOBO +U30 +Weather +,2013-09-13 14:00:00,
2013-09-13 08:05:00,62.3,52.3,-100.00,NE,37,4.5,7.4,69,0.00,,,-99.99,199.0,HOBO +U30 +Weather +,2013-09-13 14:05:00,
2013-09-13 08:10:00,63.1,52.2,-100.00,NE,37,3.4,5.1,67,0.00,,,-99.99,177.0,HOBO +U30 +Weather +,2013-09-13 14:10:00,
2013-09-13 08:15:00,62.3,51.7,-100.00,NE,41,4.0,6.3,68,0.00,,,-99.99,98.0,HOBO +U30 +Weather +,2013-09-13 14:15:00,
2013-09-13 08:20:00,62.9,52.2,-100.00,NE,53,2.2,5.1,68,0.00,,,-99.99,107.0,HOBO +U30 +Weather +,2013-09-13 14:20:00,
2013-09-13 08:25:00,63.0,52.1,-100.00,NE,52,2.2,4.5,67,0.00,,,-99.99,107.0,HOBO +U30 +Weather +,2013-09-13 14:25:00,
2013-09-13 08:30:00,62.8,52.1,-100.00,NE,52,3.4,5.6,68,0.00,,,-99.99,109.0,HOBO +U30 +Weather +,2013-09-13 14:30:00,
2013-09-13 08:43:00,63.5,52.5,-100.00,NE,41,2.2,4.0,67,0.00,,,-99.99,129.0,HOBO +U30 +Weather +,2013-09-13 14:43:00,
2013-09-13 08:45:00,64.6,52.7,-100.00,NE,45,0.0,0.7,65,0.00,,,-99.99,131.0,HOBO +U30 +Weather +,2013-09-13 14:45:00,
2013-09-13 08:50:00,64.8,53.0,-100.00,NE,49,0.0,2.2,65,0.00,,,-99.99,133.0,HOBO +U30 +Weather +,2013-09-13 14:50:00,
2013-09-13 08:55:00,63.8,52.9,-100.00,SSE,164,4.5,6.7,67,0.00,,,-99.99,151.0,HOBO +U30 +Weather +,2013-09-13 14:55:00,
2013-09-13 09:00:00,63.5,53.0,-100.00,South,187,4.5,6.7,68,0.00,,,-99.99,154.0,HOBO +U30 +Weather +,2013-09-13 15:00:00,
2013-09-13 09:05:00,64.0,53.1,-100.00,South,190,1.8,3.4,67,0.00,,,-99.99,162.0,HOBO +U30 +Weather +,2013-09-13 15:05:00,
2013-09-13 09:10:00,64.2,53.2,-100.00,South,188,2.2,4.5,67,0.00,,,-99.99,174.0,HOBO +U30 +Weather +,2013-09-13 15:10:00,
2013-09-13 09:15:00,64.3,53.4,-100.00,SSW,205,2.2,4.5,67,0.00,,,-99.99,171.0,HOBO +U30 +Weather +,2013-09-13 15:15:00,
2013-09-13 09:20:00,64.4,53.4,-100.00,SSW,194,2.9,4.5,67,0.00,,,-99.99,167.0,HOBO +U30 +Weather +,2013-09-13 15:20:00,
2013-09-13 09:25:00,64.8,53.6,-100.00,SSW,199,2.9,4.5,67,0.00,,,-99.99,197.0,HOBO +U30 +Weather +,2013-09-13 15:25:00,
2013-09-13 09:30:00,64.9,53.3,-100.00,SSW,197,4.0,6.7,66,0.00,,,-99.99,226.0,HOBO +U30 +Weather +,2013-09-13 15:30:00,
2013-09-13 09:41:00,65.0,53.4,-100.00,SSW,194,5.1,7.4,66,0.00,,,-99.99,242.0,HOBO +U30 +Weather +,2013-09-13 15:41:00,
2013-09-13 09:45:00,66.0,54.1,-100.00,South,184,2.9,5.1,65,0.00,,,-99.99,237.0,HOBO +U30 +Weather +,2013-09-13 15:45:00,
2013-09-13 09:50:00,66.3,54.2,-100.00,South,183,2.2,4.5,64,0.00,,,-99.99,246.0,HOBO +U30 +Weather +,2013-09-13 15:50:00,
2013-09-13 09:55:00,66.1,54.2,-100.00,SSE,163,3.4,5.6,65,0.00,,,-99.99,267.0,HOBO +U30 +Weather +,2013-09-13 15:55:00,
2013-09-13 10:00:00,66.4,54.6,-100.00,South,183,4.0,5.6,65,0.00,,,-99.99,258.0,HOBO +U30 +Weather +,2013-09-13 16:00:00,
2013-09-13 10:05:00,67.1,54.8,-100.00,South,175,3.4,6.3,64,0.00,,,-99.99,263.0,HOBO +U30 +Weather +,2013-09-13 16:05:00,
2013-09-13 10:10:00,67.3,55.0,-100.00,SSE,167,4.0,5.6,64,0.00,,,-99.99,264.0,HOBO +U30 +Weather +,2013-09-13 16:10:00,
2013-09-13 10:15:00,67.8,55.4,-100.00,SSE,166,3.4,6.3,64,0.00,,,-99.99,287.0,HOBO +U30 +Weather +,2013-09-13 16:15:00,
2013-09-13 10:20:00,68.0,55.1,-100.00,SSE,161,3.4,5.6,63,0.00,,,-99.99,319.0,HOBO +U30 +Weather +,2013-09-13 16:20:00,
2013-09-13 10:25:00,68.7,55.4,-100.00,SSE,154,4.0,5.6,62,0.00,,,-99.99,383.0,HOBO +U30 +Weather +,2013-09-13 16:25:00,
2013-09-13 10:39:00,69.5,55.7,-100.00,SSE,166,3.4,5.6,61,0.00,,,-99.99,419.0,HOBO +U30 +Weather +,2013-09-13 16:39:00,
2013-09-13 10:40:00,71.3,55.8,-100.00,SSW,195,5.1,8.5,58,0.00,,,-99.99,431.0,HOBO +U30 +Weather +,2013-09-13 16:40:00,
2013-09-13 10:45:00,70.7,55.4,-100.00,SSW,209,6.7,11.9,58,0.00,,,-99.99,298.0,HOBO +U30 +Weather +,2013-09-13 16:45:00,
2013-09-13 10:50:00,71.2,55.2,-100.00,SSW,202,6.3,11.2,57,0.00,,,-99.99,299.0,HOBO +U30 +Weather +,2013-09-13 16:50:00,
2013-09-13 10:55:00,70.5,55.0,-100.00,SSW,208,7.4,12.3,57,0.00,,,-99.99,374.0,HOBO +U30 +Weather +,2013-09-13 16:55:00,
2013-09-13 11:00:00,70.8,55.1,-100.00,SW,215,6.3,8.9,57,0.00,,,-99.99,347.0,HOBO +U30 +Weather +,2013-09-13 17:00:00,
2013-09-13 11:05:00,71.2,55.1,-100.00,SW,226,5.1,8.5,56,0.00,,,-99.99,322.0,HOBO +U30 +Weather +,2013-09-13 17:05:00,
2013-09-13 11:10:00,71.2,55.3,-100.00,SSW,212,4.5,7.8,57,0.00,,,-99.99,438.0,HOBO +U30 +Weather +,2013-09-13 17:10:00,
2013-09-13 11:15:00,72.1,55.5,-100.00,SSW,211,4.0,7.4,55,0.00,,,-99.99,346.0,HOBO +U30 +Weather +,2013-09-13 17:15:00,
2013-09-13 11:20:00,71.5,55.3,-100.00,SW,220,4.5,7.8,56,0.00,,,-99.99,422.0,HOBO +U30 +Weather +,2013-09-13 17:20:00,
2013-09-13 11:25:00,72.5,55.4,-100.00,WSW,248,3.4,6.3,54,0.00,,,-99.99,407.0,HOBO +U30 +Weather +,2013-09-13 17:25:00,
2013-09-13 11:38:00,73.3,55.7,-100.00,SSW,211,4.0,6.3,54,0.00,,,-99.99,727.0,HOBO +U30 +Weather +,2013-09-13 17:38:00,
2013-09-13 11:40:00,74.5,56.6,-100.00,West,264,1.8,5.1,53,0.00,,,-99.99,692.0,HOBO +U30 +Weather +,2013-09-13 17:40:00,
2013-09-13 11:45:00,75.8,56.8,-100.00,West,270,2.2,6.7,51,0.00,,,-99.99,691.0,HOBO +U30 +Weather +,2013-09-13 17:45:00,
2013-09-13 11:50:00,76.1,56.0,-100.00,WSW,248,2.9,6.7,49,0.00,,,-99.99,724.0,HOBO +U30 +Weather +,2013-09-13 17:50:00,
2013-09-13 11:55:00,75.6,56.1,-100.00,SSW,208,4.5,7.8,50,0.00,,,-99.99,673.0,HOBO +U30 +Weather +,2013-09-13 17:55:00,
2013-09-13 12:00:00,76.2,56.0,-100.00,SSW,209,3.4,6.7,49,0.00,,,-99.99,549.0,HOBO +U30 +Weather +,2013-09-13 18:00:00,
2013-09-13 12:05:00,76.6,56.0,-100.00,South,170,2.2,6.7,48,0.00,,,-99.99,441.0,HOBO +U30 +Weather +,2013-09-13 18:05:00,
2013-09-13 12:10:00,75.1,55.3,-100.00,West,265,3.4,6.7,50,0.00,,,-99.99,401.0,HOBO +U30 +Weather +,2013-09-13 18:10:00,
2013-09-13 12:15:00,75.2,54.8,-100.00,SW,218,2.2,5.1,49,0.00,,,-99.99,392.0,HOBO +U30 +Weather +,2013-09-13 18:15:00,
2013-09-13 12:20:00,76.2,55.2,-100.00,SW,219,1.8,4.0,48,0.00,,,-99.99,366.0,HOBO +U30 +Weather +,2013-09-13 18:20:00,
2013-09-13 12:25:00,76.0,54.1,-100.00,SW,227,1.8,5.1,46,0.00,,,-99.99,509.0,HOBO +U30 +Weather +,2013-09-13 18:25:00,
2013-09-13 12:36:00,75.5,56.0,-100.00,West,265,2.2,5.6,50,0.00,,,-99.99,536.0,HOBO +U30 +Weather +,2013-09-13 18:36:00,
2013-09-13 12:40:00,75.0,55.1,-100.00,WNW,284,4.0,6.3,49,0.00,,,-99.99,368.0,HOBO +U30 +Weather +,2013-09-13 18:40:00,
2013-09-13 12:45:00,76.3,55.8,-100.00,WSW,250,1.8,4.0,49,0.00,,,-99.99,463.0,HOBO +U30 +Weather +,2013-09-13 18:45:00,
2013-09-13 12:50:00,77.5,55.5,-100.00,WSW,240,1.8,4.0,46,0.00,,,-99.99,479.0,HOBO +U30 +Weather +,2013-09-13 18:50:00,
2013-09-13 12:55:00,76.6,55.0,-100.00,SW,234,1.8,5.1,47,0.00,,,-99.99,368.0,HOBO +U30 +Weather +,2013-09-13 18:55:00,
2013-09-13 13:00:00,77.6,55.1,-100.00,SSW,206,0.7,3.4,45,0.00,,,-99.99,358.0,HOBO +U30 +Weather +,2013-09-13 19:00:00,
2013-09-13 13:05:00,76.8,54.8,-100.00,SW,215,1.8,4.5,46,0.00,,,-99.99,363.0,HOBO +U30 +Weather +,2013-09-13 19:05:00,
2013-09-13 13:10:00,78.2,55.5,-100.00,SW,223,1.1,3.4,45,0.00,,,-99.99,481.0,HOBO +U30 +Weather +,2013-09-13 19:10:00,
2013-09-13 13:15:00,77.2,55.1,-100.00,North,7,3.4,6.7,46,0.00,,,-99.99,479.0,HOBO +U30 +Weather +,2013-09-13 19:15:00,
2013-09-13 13:20:00,78.7,56.1,-100.00,NNE,24,1.1,5.1,45,0.00,,,-99.99,449.0,HOBO +U30 +Weather +,2013-09-13 19:20:00,
2013-09-13 13:34:00,77.8,55.4,-100.00,North,355,2.2,5.6,46,0.00,,,-99.99,363.0,HOBO +U30 +Weather +,2013-09-13 19:34:00,
2013-09-13 13:35:00,78.5,55.9,-100.00,NNE,13,2.2,4.5,45,0.00,,,-99.99,433.0,HOBO +U30 +Weather +,2013-09-13 19:35:00,
2013-09-13 13:40:00,78.6,55.3,-100.00,West,275,4.0,7.4,44,0.00,,,-99.99,494.0,HOBO +U30 +Weather +,2013-09-13 19:40:00,
2013-09-13 13:45:00,78.4,56.2,-100.00,WNW,285,2.9,6.3,46,0.00,,,-99.99,494.0,HOBO +U30 +Weather +,2013-09-13 19:45:00,
2013-09-13 13:50:00,77.8,56.0,-100.00,West,281,4.0,8.5,47,0.00,,,-99.99,463.0,HOBO +U30 +Weather +,2013-09-13 19:50:00,
2013-09-13 13:55:00,76.6,55.6,-100.00,West,268,4.0,6.3,48,0.00,,,-99.99,322.0,HOBO +U30 +Weather +,2013-09-13 19:55:00,
2013-09-13 14:00:00,76.6,55.5,-100.00,West,261,5.1,7.8,48,0.00,,,-99.99,271.0,HOBO +U30 +Weather +,2013-09-13 20:00:00,
2013-09-13 14:05:00,77.4,55.5,-100.00,West,267,2.2,6.3,46,0.00,,,-99.99,259.0,HOBO +U30 +Weather +,2013-09-13 20:05:00,
2013-09-13 14:10:00,77.4,55.6,-100.00,WNW,293,3.4,6.3,47,0.00,,,-99.99,249.0,HOBO +U30 +Weather +,2013-09-13 20:10:00,
2013-09-13 14:15:00,77.2,55.5,-100.00,West,275,2.9,5.6,47,0.00,,,-99.99,246.0,HOBO +U30 +Weather +,2013-09-13 20:15:00,
2013-09-13 14:20:00,77.0,55.7,-100.00,West,272,3.4,6.3,47,0.00,,,-99.99,266.0,HOBO +U30 +Weather +,2013-09-13 20:20:00,
2013-09-13 14:33:00,77.1,55.6,-100.00,WNW,288,2.9,5.1,47,0.00,,,-99.99,311.0,HOBO +U30 +Weather +,2013-09-13 20:33:00,
2013-09-13 14:35:00,78.6,55.9,-100.00,WNW,282,1.8,4.5,45,0.00,,,-99.99,431.0,HOBO +U30 +Weather +,2013-09-13 20:35:00,
2013-09-13 14:40:00,79.4,55.7,-100.00,West,265,2.2,5.1,44,0.00,,,-99.99,422.0,HOBO +U30 +Weather +,2013-09-13 20:40:00,
2013-09-13 14:45:00,78.7,56.1,-100.00,WSW,250,1.8,5.1,45,0.00,,,-99.99,261.0,HOBO +U30 +Weather +,2013-09-13 20:45:00,
2013-09-13 14:50:00,78.6,56.1,-100.00,WSW,244,1.8,4.5,45,0.00,,,-99.99,248.0,HOBO +U30 +Weather +,2013-09-13 20:50:00,
2013-09-13 14:55:00,79.1,56.4,-100.00,NW,326,1.1,5.1,45,0.00,,,-99.99,254.0,HOBO +U30 +Weather +,2013-09-13 20:55:00,
2013-09-13 15:00:00,77.9,55.9,-100.00,West,263,2.9,5.6,46,0.00,,,-99.99,239.0,HOBO +U30 +Weather +,2013-09-13 21:00:00,
2013-09-13 15:05:00,77.9,56.0,-100.00,West,261,2.9,6.7,47,0.00,,,-99.99,254.0,HOBO +U30 +Weather +,2013-09-13 21:05:00,
2013-09-13 15:10:00,78.0,55.9,-100.00,WSW,250,3.4,6.3,46,0.00,,,-99.99,258.0,HOBO +U30 +Weather +,2013-09-13 21:10:00,
2013-09-13 15:15:00,77.7,56.0,-100.00,WSW,248,3.4,6.7,47,0.00,,,-99.99,248.0,HOBO +U30 +Weather +,2013-09-13 21:15:00,
2013-09-13 15:20:00,78.4,56.2,-100.00,WSW,241,2.9,5.1,46,0.00,,,-99.99,276.0,HOBO +U30 +Weather +,2013-09-13 21:20:00,
2013-09-13 15:31:00,78.6,56.5,-100.00,SW,218,2.2,6.7,46,0.00,,,-99.99,262.0,HOBO +U30 +Weather +,2013-09-13 21:31:00,
2013-09-13 15:35:00,78.0,56.3,-100.00,West,260,4.0,6.7,47,0.00,,,-99.99,251.0,HOBO +U30 +Weather +,2013-09-13 21:35:00,
2013-09-13 15:40:00,78.0,56.1,-100.00,WSW,240,5.1,7.4,46,0.00,,,-99.99,228.0,HOBO +U30 +Weather +,2013-09-13 21:40:00,
2013-09-13 15:45:00,77.7,55.6,-100.00,WSW,246,6.3,11.9,46,0.00,,,-99.99,204.0,HOBO +U30 +Weather +,2013-09-13 21:45:00,
2013-09-13 15:50:00,77.6,55.6,-100.00,WSW,244,6.3,12.3,46,0.00,,,-99.99,177.0,HOBO +U30 +Weather +,2013-09-13 21:50:00,
2013-09-13 15:55:00,77.5,55.7,-100.00,WSW,256,6.7,10.1,47,0.00,,,-99.99,161.0,HOBO +U30 +Weather +,2013-09-13 21:55:00,
2013-09-13 16:00:00,77.3,55.5,-100.00,WSW,237,6.3,8.9,47,0.00,,,-99.99,161.0,HOBO +U30 +Weather +,2013-09-13 22:00:00,
2013-09-13 16:05:00,77.2,55.8,-100.00,SW,236,5.6,8.5,47,0.00,,,-99.99,153.0,HOBO +U30 +Weather +,2013-09-13 22:05:00,
2013-09-13 16:10:00,77.5,56.3,-100.00,WSW,248,4.5,7.4,48,0.00,,,-99.99,141.0,HOBO +U30 +Weather +,2013-09-13 22:10:00,
2013-09-13 16:15:00,77.2,55.6,-100.00,West,261,5.1,8.5,47,0.00,,,-99.99,132.0,HOBO +U30 +Weather +,2013-09-13 22:15:00,
2013-09-13 16:20:00,76.8,55.6,-100.00,West,260,6.3,10.1,48,0.00,,,-99.99,123.0,HOBO +U30 +Weather +,2013-09-13 22:20:00,
2013-09-13 16:30:00,76.8,55.5,-100.00,WSW,253,6.3,10.7,47,0.00,,,-99.99,114.0,HOBO +U30 +Weather +,2013-09-13 22:30:00,
2013-09-13 16:35:00,76.6,55.8,-100.00,WSW,246,6.7,10.7,48,0.00,,,-99.99,96.0,HOBO +U30 +Weather +,2013-09-13 22:35:00,
2013-09-13 16:40:00,76.4,55.5,-100.00,WSW,251,7.4,12.3,48,0.00,,,-99.99,91.0,HOBO +U30 +Weather +,2013-09-13 22:40:00,
2013-09-13 16:45:00,76.2,55.2,-100.00,WSW,251,7.8,11.9,48,0.00,,,-99.99,88.0,HOBO +U30 +Weather +,2013-09-13 22:45:00,
2013-09-13 16:50:00,76.4,55.4,-100.00,WSW,246,7.4,10.1,48,0.00,,,-99.99,87.0,HOBO +U30 +Weather +,2013-09-13 22:50:00,
2013-09-13 16:55:00,76.3,55.4,-100.00,WSW,251,6.3,10.1,48,0.00,,,-99.99,83.0,HOBO +U30 +Weather +,2013-09-13 22:55:00,
2013-09-13 17:00:00,76.4,55.6,-100.00,WSW,244,6.3,9.6,48,0.00,,,-99.99,79.0,HOBO +U30 +Weather +,2013-09-13 23:00:00,
2013-09-13 17:05:00,76.4,55.7,-100.00,WSW,256,5.6,8.5,48,0.00,,,-99.99,77.0,HOBO +U30 +Weather +,2013-09-13 23:05:00,
2013-09-13 17:10:00,76.3,55.4,-100.00,WSW,246,5.6,10.1,48,0.00,,,-99.99,76.0,HOBO +U30 +Weather +,2013-09-13 23:10:00,
2013-09-13 17:15:00,76.1,55.5,-100.00,West,270,6.3,9.6,48,0.00,,,-99.99,73.0,HOBO +U30 +Weather +,2013-09-13 23:15:00,
2013-09-13 17:27:00,75.8,55.5,-100.00,WSW,251,6.3,10.7,49,0.00,,,-99.99,69.0,HOBO +U30 +Weather +,2013-09-13 23:27:00,
2013-09-13 17:30:00,75.5,55.1,-100.00,WSW,258,7.4,10.7,49,0.00,,,-99.99,61.0,HOBO +U30 +Weather +,2013-09-13 23:30:00,
2013-09-13 17:35:00,75.5,55.2,-100.00,WSW,251,7.4,10.7,49,0.00,,,-99.99,58.0,HOBO +U30 +Weather +,2013-09-13 23:35:00,
2013-09-13 17:40:00,75.5,55.5,-100.00,WSW,254,6.7,13.0,49,0.00,,,-99.99,58.0,HOBO +U30 +Weather +,2013-09-13 23:40:00,
2013-09-13 17:45:00,75.2,55.1,-100.00,WSW,247,8.5,12.3,49,0.00,,,-99.99,53.0,HOBO +U30 +Weather +,2013-09-13 23:45:00,
2013-09-13 17:50:00,75.2,55.1,-100.00,WSW,253,6.3,11.2,49,0.00,,,-99.99,48.0,HOBO +U30 +Weather +,2013-09-13 23:50:00,
2013-09-13 17:55:00,75.0,55.1,-100.00,WSW,251,6.3,11.2,49,0.00,,,-99.99,43.0,HOBO +U30 +Weather +,2013-09-13 23:55:00,
2013-09-13 18:00:00,74.9,55.1,-100.00,WSW,246,6.3,9.6,50,0.00,,,-99.99,37.0,HOBO +U30 +Weather +,2013-09-14 00:00:00,
2013-09-13 18:05:00,74.9,55.1,-100.00,WSW,248,5.1,8.9,50,0.00,,,-99.99,36.0,HOBO +U30 +Weather +,2013-09-14 00:05:00,
2013-09-13 18:10:00,74.7,55.1,-100.00,WSW,239,4.5,8.9,50,0.00,,,-99.99,37.0,HOBO +U30 +Weather +,2013-09-14 00:10:00,
2013-09-13 18:15:00,74.8,55.1,-100.00,WSW,244,2.9,6.3,50,0.00,,,-99.99,39.0,HOBO +U30 +Weather +,2013-09-14 00:15:00,
2013-09-13 18:26:00,74.8,55.1,-100.00,WSW,247,1.8,5.1,50,0.00,,,-99.99,37.0,HOBO +U30 +Weather +,2013-09-14 00:26:00,
2013-09-13 18:30:00,74.8,55.3,-100.00,SW,216,1.8,5.1,50,0.00,,,-99.99,28.0,HOBO +U30 +Weather +,2013-09-14 00:30:00,
2013-09-13 18:35:00,74.7,55.2,-100.00,South,183,2.2,6.3,50,0.00,,,-99.99,24.0,HOBO +U30 +Weather +,2013-09-14 00:35:00,
2013-09-13 18:40:00,74.6,55.2,-100.00,SSW,209,2.9,5.1,50,0.00,,,-99.99,18.0,HOBO +U30 +Weather +,2013-09-14 00:40:00,
2013-09-13 18:45:00,74.5,55.3,-100.00,West,275,1.8,4.0,51,0.00,,,-99.99,14.0,HOBO +U30 +Weather +,2013-09-14 00:45:00,
2013-09-13 18:50:00,74.3,55.1,-100.00,WSW,253,2.2,6.3,51,0.00,,,-99.99,12.0,HOBO +U30 +Weather +,2013-09-14 00:50:00,
2013-09-13 18:55:00,74.2,55.3,-100.00,WSW,239,3.4,5.6,51,0.00,,,-99.99,9.0,HOBO +U30 +Weather +,2013-09-14 00:55:00,
2013-09-13 19:00:00,74.4,55.3,-100.00,SW,215,3.4,7.4,51,0.00,,,-99.99,7.0,HOBO +U30 +Weather +,2013-09-14 01:00:00,
2013-09-13 19:05:00,74.2,55.3,-100.00,SSW,209,5.1,7.8,51,0.00,,,-99.99,4.0,HOBO +U30 +Weather +,2013-09-14 01:05:00,
2013-09-13 19:10:00,74.2,55.2,-100.00,SW,220,4.0,7.4,51,0.00,,,-99.99,2.0,HOBO +U30 +Weather +,2013-09-14 01:10:00,
2013-09-13 19:24:00,74.0,55.4,-100.00,SSW,194,2.9,6.7,52,0.00,,,-99.99,2.0,HOBO +U30 +Weather +,2013-09-14 01:24:00,
2013-09-13 19:25:00,73.4,55.8,-100.00,South,185,4.0,6.7,54,0.00,,,-99.99,1.0,HOBO +U30 +Weather +,2013-09-14 01:25:00,
2013-09-13 19:30:00,73.4,55.8,-100.00,SW,222,4.0,6.3,53,0.00,,,-99.99,1.0,HOBO +U30 +Weather +,2013-09-14 01:30:00,
2013-09-13 19:35:00,73.5,55.9,-100.00,SSW,213,2.9,5.6,54,0.00,,,-99.99,1.0,HOBO +U30 +Weather +,2013-09-14 01:35:00,
2013-09-13 19:40:00,73.3,56.0,-100.00,SSW,201,4.0,7.8,54,0.00,,,-99.99,1.0,HOBO +U30 +Weather +,2013-09-14 01:40:00,
2013-09-13 19:45:00,72.6,56.1,-100.00,South,170,5.6,7.4,56,0.00,,,-99.99,1.0,HOBO +U30 +Weather +,2013-09-14 01:45:00,
2013-09-13 19:50:00,72.5,56.6,-100.00,South,190,3.4,5.1,57,0.00,,,-99.99,1.0,HOBO +U30 +Weather +,2013-09-14 01:50:00,
2013-09-13 19:55:00,72.6,56.4,-100.00,SSW,202,4.5,6.3,56,0.00,,,-99.99,1.0,HOBO +U30 +Weather +,2013-09-14 01:55:00,
2013-09-13 20:00:00,72.8,56.2,-100.00,SSW,212,4.5,7.4,56,0.00,,,-99.99,1.0,HOBO +U30 +Weather +,2013-09-14 02:00:00,
2013-09-13 20:05:00,72.6,56.3,-100.00,South,190,3.4,6.3,56,0.00,,,-99.99,1.0,HOBO +U30 +Weather +,2013-09-14 02:05:00,
2013-09-13 20:10:00,72.6,56.1,-100.00,SSW,198,6.3,10.7,56,0.00,,,-99.99,1.0,HOBO +U30 +Weather +,2013-09-14 02:10:00,
2013-09-13 20:22:00,72.6,56.4,-100.00,SSW,202,6.7,11.2,56,0.00,,,-99.99,1.0,HOBO +U30 +Weather +,2013-09-14 02:22:00,
2013-09-13 20:25:00,70.5,58.0,-100.00,WSW,241,8.9,14.5,64,0.00,,,-99.99,1.0,HOBO +U30 +Weather +,2013-09-14 02:25:00,
2013-09-13 20:30:00,69.9,58.1,-100.00,SW,226,7.4,13.0,65,0.00,,,-99.99,1.0,HOBO +U30 +Weather +,2013-09-14 02:30:00,
2013-09-13 20:35:00,69.9,58.3,-100.00,SW,216,4.0,8.9,66,0.00,,,-99.99,1.0,HOBO +U30 +Weather +,2013-09-14 02:35:00,
2013-09-13 20:40:00,69.4,58.4,-100.00,SSW,206,6.3,10.7,68,0.00,,,-99.99,1.0,HOBO +U30 +Weather +,2013-09-14 02:40:00,
2013-09-13 20:45:00,68.8,58.8,-100.00,SSW,199,5.6,10.7,70,0.00,,,-99.99,1.0,HOBO +U30 +Weather +,2013-09-14 02:45:00,
2013-09-13 20:50:00,68.2,58.9,-100.00,SSW,199,6.3,10.1,72,0.00,,,-99.99,1.0,HOBO +U30 +Weather +,2013-09-14 02:50:00,
2013-09-13 20:55:00,67.7,58.5,-100.00,SSW,208,6.7,11.2,72,0.00,,,-99.99,1.0,HOBO +U30 +Weather +,2013-09-14 02:55:00,
2013-09-13 21:00:00,67.3,58.7,-100.00,SSW,197,6.7,10.1,73,0.00,,,-99.99,1.0,HOBO +U30 +Weather +,2013-09-14 03:00:00,
2013-09-13 21:05:00,66.7,58.8,-100.00,South,180,6.3,8.9,75,0.00,,,-99.99,1.0,HOBO +U30 +Weather +,2013-09-14 03:05:00,
2013-09-13 21:10:00,66.5,59.4,-100.00,SSW,199,6.3,8.9,77,0.00,,,-99.99,1.0,HOBO +U30 +Weather +,2013-09-14 03:10:00,
2013-09-13 21:21:00,66.3,59.6,-100.00,SSW,195,5.1,7.8,78,0.00,,,-99.99,1.0,HOBO +U30 +Weather +,2013-09-14 03:21:00,
2013-09-13 21:25:00,65.1,57.7,-100.00,South,178,7.4,12.3,77,0.00,,,-99.99,1.0,HOBO +U30 +Weather +,2013-09-14 03:25:00,
2013-09-13 21:30:00,64.7,57.2,-100.00,South,183,9.6,12.3,76,0.00,,,-99.99,1.0,HOBO +U30 +Weather +,2013-09-14 03:30:00,
2013-09-13 21:35:00,64.6,57.8,-100.00,SSW,195,10.1,14.1,78,0.00,,,-99.99,1.0,HOBO +U30 +Weather +,2013-09-14 03:35:00,
2013-09-13 21:40:00,64.4,58.0,-100.00,SSW,201,7.8,11.9,79,0.00,,,-99.99,1.0,HOBO +U30 +Weather +,2013-09-14 03:40:00,
2013-09-13 21:45:00,64.0,58.1,-100.00,SSW,197,7.4,12.3,81,0.00,,,-99.99,1.0,HOBO +U30 +Weather +,2013-09-14 03:45:00,
2013-09-13 21:50:00,63.6,58.2,-100.00,SSW,194,7.8,11.9,82,0.14,,,-99.99,1.0,HOBO +U30 +Weather +,2013-09-14 03:50:00,
2013-09-13 21:55:00,63.5,58.4,-100.00,SSW,199,5.6,8.9,83,0.00,,,-99.99,1.0,HOBO +U30 +Weather +,2013-09-14 03:55:00,
2013-09-13 22:00:00,63.6,58.3,-100.00,SSW,208,6.7,11.9,82,0.00,,,-99.99,1.0,HOBO +U30 +Weather +,2013-09-14 04:00:00,
2013-09-13 22:05:00,62.8,57.5,-100.00,SSW,209,8.5,13.0,82,0.00,,,-99.99,1.0,HOBO +U30 +Weather +,2013-09-14 04:05:00,
2013-09-13 22:10:00,62.6,57.7,-100.00,SW,219,7.4,10.7,84,0.00,,,-99.99,1.0,HOBO +U30 +Weather +,2013-09-14 04:10:00,
2013-09-13 22:20:00,62.5,57.8,-100.00,SW,227,7.4,12.3,84,0.14,,,-99.99,1.0,HOBO +U30 +Weather +,2013-09-14 04:20:00,
2013-09-13 22:25:00,61.8,57.9,-100.00,SW,227,5.1,8.9,86,0.14,,,-99.99,1.0,HOBO +U30 +Weather +,2013-09-14 04:25:00,
2013-09-13 22:30:00,61.7,58.0,-100.00,SW,232,6.3,10.7,87,0.14,,,-99.99,1.0,HOBO +U30 +Weather +,2013-09-14 04:30:00,
2013-09-13 22:35:00,61.6,57.8,-100.00,SW,226,6.7,10.1,87,0.14,,,-99.99,1.0,HOBO +U30 +Weather +,2013-09-14 04:35:00,
2013-09-13 22:40:00,61.5,57.8,-100.00,SW,233,6.3,11.2,87,0.14,,,-99.99,1.0,HOBO +U30 +Weather +,2013-09-14 04:40:00,
2013-09-13 22:45:00,61.6,58.0,-100.00,SW,236,5.1,8.9,87,0.00,,,-99.99,1.0,HOBO +U30 +Weather +,2013-09-14 04:45:00,
2013-09-13 22:50:00,61.5,58.2,-100.00,WSW,244,6.3,11.2,88,0.14,,,-99.99,1.0,HOBO +U30 +Weather +,2013-09-14 04:50:00,
2013-09-13 22:55:00,61.2,58.2,-100.00,WSW,254,7.4,11.9,89,0.14,,,-99.99,1.0,HOBO +U30 +Weather +,2013-09-14 04:55:00,
2013-09-13 23:00:00,61.1,58.3,-100.00,West,260,6.7,11.2,90,0.14,,,-99.99,1.0,HOBO +U30 +Weather +,2013-09-14 05:00:00,
2013-09-13 23:05:00,60.9,58.2,-100.00,WSW,254,8.9,14.1,90,0.14,,,-99.99,1.0,HOBO +U30 +Weather +,2013-09-14 05:05:00,
2013-09-13 23:10:00,60.9,58.4,-100.00,WSW,254,8.9,15.9,91,0.00,,,-99.99,1.0,HOBO +U30 +Weather +,2013-09-14 05:10:00,
2013-09-13 23:15:00,60.8,58.4,-100.00,WSW,244,8.9,13.0,91,0.14,,,-99.99,1.0,HOBO +U30 +Weather +,2013-09-14 05:15:00,
2013-09-13 23:20:00,60.8,58.5,-100.00,SW,222,6.3,12.3,92,0.00,,,-99.99,1.0,HOBO +U30 +Weather +,2013-09-14 05:20:00,
2013-09-13 23:25:00,60.8,58.5,-100.00,SW,226,6.3,10.1,92,0.14,,,-99.99,1.0,HOBO +U30 +Weather +,2013-09-14 05:25:00,
2013-09-13 23:30:00,60.9,58.7,-100.00,SW,229,5.6,9.6,92,0.00,,,-99.99,1.0,HOBO +U30 +Weather +,2013-09-14 05:30:00,
2013-09-13 23:35:00,61.0,58.9,-100.00,WSW,237,5.6,8.9,92,0.00,,,-99.99,1.0,HOBO +U30 +Weather +,2013-09-14 05:35:00,
2013-09-13 23:40:00,61.0,59.0,-100.00,WSW,247,5.6,10.1,92,0.00,,,-99.99,1.0,HOBO +U30 +Weather +,2013-09-14 05:40:00,
2013-09-13 23:45:00,61.0,59.1,-100.00,WSW,243,7.4,10.7,93,0.00,,,-99.99,1.0,HOBO +U30 +Weather +,2013-09-14 05:45:00,
2013-09-13 23:50:00,61.1,59.2,-100.00,WSW,250,7.4,12.3,93,0.00,,,-99.99,1.0,HOBO +U30 +Weather +,2013-09-14 05:50:00,
2013-09-13 23:55:00,61.2,59.1,-100.00,WSW,246,7.4,11.9,92,0.00,,,-99.99,1.0,HOBO +U30 +Weather +,2013-09-14 05:55:00,